EW7634 Skibby DK current weather conditions

sailwx.info

Wind from 199 at 3 knots gusting 14

Air temperature 6.7° C
Dewpoint 5.9° C

Last reported at 2019-Dec-06 20:05 UTC.
Time now 2019-Dec-06 20:29 UTC

Location: N 55°48' E 012°03'.
View on Google Maps.

See reports from other nearby stations

  
Tides and Currents Weather Stations Pressure Air Temp Water Temp Dewpoint Dewpoint Depression Visibility Wind Speed Wind Dir Waves Ship Positions
date/time (UTC)wind fromknots sea level pressurealtimeterstation pressurevisibilityair tempwater tempwave heightnotes
2019-Dec-06 20:05 199 3 gusting 14 6.7
2019-Dec-06 19:55 240 1 gusting 13 6.7
2019-Dec-06 19:50 232 4 gusting 16 6.7
2019-Dec-06 19:40 202 3 gusting 17 6.7
2019-Dec-06 19:35 224 6 gusting 17 6.7
2019-Dec-06 19:30 241 2 gusting 10 6.7
2019-Dec-06 19:25 173 0 gusting 9 6.7
2019-Dec-06 19:20 199 2 gusting 15 6.7
2019-Dec-06 19:15 186 6 gusting 15 6.7
2019-Dec-06 19:10 194 4 gusting 11 6.7
2019-Dec-06 19:05 190 3 gusting 8 6.7
2019-Dec-06 19:00 198 1 gusting 11 6.7
2019-Dec-06 18:55 217 2 gusting 12 6.7
2019-Dec-06 18:50 200 1 gusting 14 6.7
2019-Dec-06 18:40 219 5 gusting 13 6.7
2019-Dec-06 18:35 211 1 gusting 13 6.7
2019-Dec-06 18:30 236 3 gusting 14 6.7
2019-Dec-06 18:25 228 2 gusting 12 6.7
2019-Dec-06 18:20 209 2 gusting 11 6.7
2019-Dec-06 18:11 187 1 gusting 6 6.7
2019-Dec-06 18:06 182 6.7
2019-Dec-06 18:01 202 0 gusting 6 6.7
2019-Dec-06 18:00 232 0 gusting 6 6.7
2019-Dec-06 17:50 222 6.1
2019-Dec-06 17:46 196 0 gusting 8 6.1
2019-Dec-06 17:40 184 1 gusting 8 6.7
2019-Dec-06 17:36 214 6.7
2019-Dec-06 17:32 228 6.1
2019-Dec-06 17:25 205 6.7
2019-Dec-06 17:20 179 6.7
2019-Dec-06 17:17 196 6.7
2019-Dec-06 17:11 177 6.7
2019-Dec-06 17:06 181 0 gusting 6 6.7
2019-Dec-06 17:01 194 0 gusting 6 6.7
2019-Dec-06 16:56 219 6.7
2019-Dec-06 16:50 185 0 gusting 3 6.7
2019-Dec-06 16:47 234 6.7
2019-Dec-06 16:40 215 6.7
2019-Dec-06 16:36 205 2 gusting 13 6.7
2019-Dec-06 16:32 267 3 gusting 13 6.7
2019-Dec-06 16:25 230 6.7
2019-Dec-06 16:20 200 6.7
2019-Dec-06 16:16 238 0 gusting 13 6.7
2019-Dec-06 16:10 200 0 gusting 13 6.7
2019-Dec-06 16:05 178 1 gusting 8 6.7
2019-Dec-06 16:02 215 2 gusting 14 6.7
2019-Dec-06 15:55 163 1 gusting 12 6.7
2019-Dec-06 15:50 207 1 gusting 12 6.7
2019-Dec-06 15:46 234 1 gusting 9 6.7
2019-Dec-06 15:40 153 7.2
2019-Dec-06 15:35 233 1 gusting 17 7.2
2019-Dec-06 15:31 219 2 gusting 17 7.2
2019-Dec-06 15:25 207 2 gusting 14 7.2
2019-Dec-06 15:20 209 7.2
2019-Dec-06 15:16 213 7.2
2019-Dec-06 15:10 213 7.2
2019-Dec-06 15:05 209 7.2
2019-Dec-06 15:01 201 3 gusting 12 7.2
2019-Dec-06 14:55 184 2 gusting 12 7.2
2019-Dec-06 14:50 187 0 gusting 12 7.2
2019-Dec-06 14:46 231 2 gusting 13 7.2
2019-Dec-06 14:40 217 1 gusting 13 7.2
2019-Dec-06 14:35 224 1 gusting 7 7.2
2019-Dec-06 14:32 203 1 gusting 13 7.2
2019-Dec-06 14:25 236 0 gusting 13 7.2
2019-Dec-06 14:20 180 2 gusting 10 7.8
2019-Dec-06 14:16 205 1 gusting 15 7.8
2019-Dec-06 14:10 218 2 gusting 14 7.8
2019-Dec-06 14:05 221 1 gusting 10 7.8
2019-Dec-06 14:01 221 1 gusting 8 7.8
2019-Dec-06 13:55 232 7.8
2019-Dec-06 13:50 229 0 gusting 15 7.8
2019-Dec-06 13:46 217 0 gusting 6 7.8
2019-Dec-06 13:40 216 7.8
2019-Dec-06 13:35 217 1 gusting 14 7.8
2019-Dec-06 13:31 186 1 gusting 14 8.3
2019-Dec-06 13:25 205 8.3
2019-Dec-06 13:20 222 2 gusting 12 8.3
2019-Dec-06 13:16 239 1 gusting 12 8.3
2019-Dec-06 13:10 234 1 gusting 7 8.3
2019-Dec-06 13:05 221 1 gusting 13 8.3
2019-Dec-06 13:00 232 8.3
2019-Dec-06 12:55 225 0 gusting 9 8.3
2019-Dec-06 12:50 243 0 gusting 8 8.3
2019-Dec-06 12:45 205 0 gusting 14 8.3
2019-Dec-06 12:40 231 0 gusting 9 8.3
2019-Dec-06 12:35 218 1 gusting 9 8.3
2019-Dec-06 12:25 195 8.3
2019-Dec-06 12:20 227 3 gusting 9 8.3
2019-Dec-06 12:16 190 0 gusting 8 8.3
2019-Dec-06 12:10 243 1 gusting 8 8.3
2019-Dec-06 12:05 189 8.3
2019-Dec-06 12:01 161 0 gusting 7 8.3
2019-Dec-06 11:55 219 0 gusting 7 8.3
2019-Dec-06 11:50 300 1 gusting 10 8.3
2019-Dec-06 11:46 236 2 gusting 10 8.3
2019-Dec-06 11:40 196 0 gusting 7 8.3
2019-Dec-06 11:35 235 1 gusting 7 8.3
2019-Dec-06 11:31 215 0 gusting 12 8.3
2019-Dec-06 11:25 234 0 gusting 12 8.3
2019-Dec-06 11:20 238 1 gusting 11 8.3
2019-Dec-06 11:16 239 8.3
2019-Dec-06 11:10 254 0 gusting 10 8.3
2019-Dec-06 11:05 219 2 gusting 10 8.3
2019-Dec-06 11:01 210 1 gusting 6 8.3
2019-Dec-06 10:55 220 2 gusting 8 8.3
2019-Dec-06 10:50 309 1 gusting 8 8.3
2019-Dec-06 10:46 209 0 gusting 9 8.3
2019-Dec-06 10:40 223 2 gusting 9 8.3
2019-Dec-06 10:35 246 1 gusting 9 8.3
2019-Dec-06 10:31 211 0 gusting 6 8.3
2019-Dec-06 10:25 215 1 gusting 6 8.3
2019-Dec-06 10:20 227 0 gusting 5 8.3
2019-Dec-06 10:16 211 0 gusting 6 8.3
2019-Dec-06 10:10 215 1 gusting 6 8.3
2019-Dec-06 10:05 247 1 gusting 6 8.3
2019-Dec-06 10:00 219 8.3
2019-Dec-06 09:55 241 0 gusting 5 8.3
2019-Dec-06 09:50 229 8.3
2019-Dec-06 09:46 266 0 gusting 6 8.9
2019-Dec-06 09:40 205 0 gusting 5 8.9
2019-Dec-06 09:35 204 8.9
2019-Dec-06 09:31 252 8.9
2019-Dec-06 09:25 246 0 gusting 5 8.9
2019-Dec-06 09:20 195 1 gusting 5 8.9
2019-Dec-06 09:15 243 8.9
2019-Dec-06 09:10 225 0 gusting 5 8.9
2019-Dec-06 09:05 254 8.9
2019-Dec-06 09:00 244 1 gusting 5 8.9
2019-Dec-06 08:55 247 0 gusting 5 8.9
2019-Dec-06 08:50 207 8.9
2019-Dec-06 08:45 231 0 gusting 6 8.9
2019-Dec-06 08:40 218 1 gusting 6 8.9
2019-Dec-06 08:35 240 0 gusting 6 8.9
2019-Dec-06 08:31 212 1 gusting 6 8.9
2019-Dec-06 08:25 266 1 gusting 6 8.3
2019-Dec-06 08:20 234 1 gusting 12 8.3
2019-Dec-06 08:16 206 2 gusting 11 8.3
2019-Dec-06 08:10 198 1 gusting 5 8.3
2019-Dec-06 08:05 229 0 gusting 5 8.3
2019-Dec-06 08:00 268 1 gusting 7 8.3
2019-Dec-06 07:55 241 8.3
2019-Dec-06 07:50 248 0 gusting 6 8.3
2019-Dec-06 07:45 215 0 gusting 6 8.3
2019-Dec-06 07:40 166 1 gusting 6 8.3
2019-Dec-06 07:35 219 0 gusting 6 8.3
2019-Dec-06 07:25 221 0 gusting 6 8.3
2019-Dec-06 07:20 202 0 gusting 6 8.3
2019-Dec-06 07:10 218 1 gusting 8 8.3
2019-Dec-06 07:05 257 3 gusting 9 8.3
2019-Dec-06 06:55 248 1 gusting 7 8.3
2019-Dec-06 06:50 234 1 gusting 7 8.3
2019-Dec-06 06:45 230 1 gusting 7 8.3
2019-Dec-06 06:40 240 2 gusting 11 8.3
2019-Dec-06 06:35 258 2 gusting 11 7.8
2019-Dec-06 06:30 196 1 gusting 7 7.8
2019-Dec-06 06:25 255 2 gusting 8 7.8
2019-Dec-06 06:20 319 2 gusting 8 7.8
2019-Dec-06 06:15 232 1 gusting 6 7.8
2019-Dec-06 06:10 211 2 gusting 7 7.8
2019-Dec-06 06:05 246 1 gusting 10 7.8
2019-Dec-06 06:00 233 2 gusting 10 7.8
2019-Dec-06 05:55 196 2 gusting 6 7.8
2019-Dec-06 05:50 243 1 gusting 6 7.8
2019-Dec-06 05:45 258 2 gusting 6 7.8
2019-Dec-06 05:35 247 3 gusting 13 7.2
2019-Dec-06 05:30 159 1 gusting 13 7.2
2019-Dec-06 05:25 257 1 gusting 13 7.2
2019-Dec-06 05:20 204 1 gusting 7 7.2
2019-Dec-06 05:11 238 1 gusting 7 7.2
2019-Dec-06 05:05 228 0 gusting 13 7.2
2019-Dec-06 05:01 209 2 gusting 13 7.2
2019-Dec-06 04:56 234 2 gusting 7 7.2
2019-Dec-06 04:50 209 2 gusting 8 7.2
2019-Dec-06 04:47 210 1 gusting 13 7.2
2019-Dec-06 04:41 215 2 gusting 13 7.2
2019-Dec-06 04:36 215 2 gusting 8 7.2
2019-Dec-06 04:31 219 2 gusting 8 7.2
2019-Dec-06 04:25 194 1 gusting 6 6.7
2019-Dec-06 04:20 220 2 gusting 6 6.7
2019-Dec-06 04:19 260 2 gusting 6 6.7
2019-Dec-06 04:11 268 1 gusting 7 6.7
2019-Dec-06 04:05 219 2 gusting 10 6.7
2019-Dec-06 04:02 282 2 gusting 10 6.7
2019-Dec-06 03:56 258 1 gusting 6 6.7
2019-Dec-06 03:50 211 2 gusting 8 6.7
2019-Dec-06 03:46 238 1 gusting 11 6.7
2019-Dec-06 03:40 245 2 gusting 10 6.7
2019-Dec-06 03:36 184 0 gusting 7 6.1
2019-Dec-06 03:31 219 1 gusting 9 6.1
2019-Dec-06 03:25 209 2 gusting 13 6.1
2019-Dec-06 03:20 221 3 gusting 13 6.1
2019-Dec-06 03:16 257 3 gusting 13 6.1
2019-Dec-06 03:10 187 2 gusting 16 6.1
2019-Dec-06 03:05 222 3 gusting 16 6.1
2019-Dec-06 03:01 209 2 gusting 9 6.1
2019-Dec-06 02:55 210 3 gusting 9 6.1
2019-Dec-06 02:50 241 2 gusting 9 5.6
2019-Dec-06 02:46 178 1 gusting 16 5.6
2019-Dec-06 02:40 233 3 gusting 16 5.6
2019-Dec-06 02:35 221 2 gusting 13 5.6
2019-Dec-06 02:31 217 2 gusting 11 5.6
2019-Dec-06 02:25 235 2 gusting 13 5.6
2019-Dec-06 02:21 259 3 gusting 13 5.6
2019-Dec-06 02:15 208 1 gusting 8 5.6
2019-Dec-06 02:10 227 2 gusting 13 5.6
2019-Dec-06 02:05 179 2 gusting 13 5.6
2019-Dec-06 02:00 181 1 gusting 10 5.6
2019-Dec-06 01:55 233 2 gusting 13 5.6
2019-Dec-06 01:50 220 3 gusting 14 5.6
2019-Dec-06 01:46 224 1 gusting 18 5.6
2019-Dec-06 01:40 211 3 gusting 18 5.6
2019-Dec-06 01:35 229 2 gusting 15 5.0
2019-Dec-06 01:30 250 2 gusting 10 5.0
2019-Dec-06 01:25 220 1 gusting 21 5.0
2019-Dec-06 01:20 215 2 gusting 21 5.0
2019-Dec-06 01:16 207 2 gusting 13 5.0
2019-Dec-06 01:10 246 2 gusting 10 5.0
2019-Dec-06 01:05 198 1 gusting 9 5.0
2019-Dec-06 01:00 161 2 gusting 9 5.0
2019-Dec-06 00:55 215 1 gusting 9 5.0
2019-Dec-06 00:50 236 0 gusting 10 5.0
2019-Dec-06 00:45 191 1 gusting 10 5.0
2019-Dec-06 00:40 227 1 gusting 6 5.0
2019-Dec-06 00:35 221 1 gusting 7 5.0
2019-Dec-06 00:25 173 2 gusting 6 5.0
2019-Dec-06 00:15 169 1 gusting 13 5.0
2019-Dec-06 00:10 171 0 gusting 13 5.0
2019-Dec-06 00:05 223 2 gusting 9 5.0
2019-Dec-06 00:00 238 1 gusting 7 5.6
2019-Dec-05 23:55 210 1 gusting 7 5.6
2019-Dec-05 23:50 173 2 gusting 6 5.6
2019-Dec-05 23:40 153 2 gusting 8 5.6
2019-Dec-05 23:35 230 1 gusting 8 5.6
2019-Dec-05 23:30 223 2 gusting 10 5.6
2019-Dec-05 23:20 197 3 gusting 11 6.1
2019-Dec-05 23:17 209 1 gusting 10 6.1
2019-Dec-05 23:10 202 3 gusting 10 6.1
2019-Dec-05 23:05 229 2 gusting 9 6.1
2019-Dec-05 23:01 224 2 gusting 8 6.1
2019-Dec-05 22:55 225 1 gusting 8 6.1
2019-Dec-05 22:51 207 1 gusting 8 6.1
2019-Dec-05 22:46 219 2 gusting 10 6.1
2019-Dec-05 22:41 172 3 gusting 10 6.1
2019-Dec-05 22:36 200 1 gusting 7 6.1
2019-Dec-05 22:31 215 2 gusting 7 6.1
2019-Dec-05 22:26 223 1 gusting 10 6.1
2019-Dec-05 22:20 213 1 gusting 8 6.1
2019-Dec-05 22:16 244 1 gusting 8 6.1
2019-Dec-05 22:11 167 1 gusting 8 6.1
2019-Dec-05 22:05 196 2 gusting 10 6.1
2019-Dec-05 22:01 202 2 gusting 15 6.1
2019-Dec-05 21:55 256 2 gusting 15 6.1
2019-Dec-05 21:50 227 1 gusting 7 6.1
2019-Dec-05 21:46 159 2 gusting 6 6.1
2019-Dec-05 21:40 168 1 gusting 11 6.1
2019-Dec-05 21:35 241 4 gusting 14 6.1
2019-Dec-05 21:31 236 5 gusting 14 6.1
2019-Dec-05 21:26 175 3 gusting 11 6.1
2019-Dec-05 21:16 239 0 gusting 13 6.1
2019-Dec-05 21:10 169 2 gusting 8 6.1
2019-Dec-05 21:05 212 1 gusting 10 6.1
2019-Dec-05 21:01 241 1 gusting 6 6.1
2019-Dec-05 20:55 224 0 gusting 9 6.1
2019-Dec-05 20:50 213 2 gusting 9 6.1
2019-Dec-05 20:45 229 0 gusting 12 6.1
2019-Dec-05 20:40 192 3 gusting 12 6.1
2019-Dec-05 20:35 331 2 gusting 6 6.1
2019-Dec-05 20:30 223 1 gusting 6 6.1
2019-Dec-05 20:25 212 1 gusting 8 6.1
2019-Dec-05 20:20 211 3 gusting 12 6.1
2019-Dec-05 20:15 228 3 gusting 11 6.1
2019-Dec-05 20:10 240 1 gusting 10 6.1
2019-Dec-05 20:05 160 1 gusting 11 6.1
2019-Dec-05 20:00 211 3 gusting 12 6.1
2019-Dec-05 19:55 225 1 gusting 6 6.7
2019-Dec-05 19:50 217 6.7
2019-Dec-05 19:45 214 1 gusting 8 6.7
2019-Dec-05 19:40 222 0 gusting 7 6.7
2019-Dec-05 19:35 184 1 gusting 10 6.7
2019-Dec-05 19:25 221 3 gusting 9 6.7
2019-Dec-05 19:20 167 1 gusting 7 6.7
2019-Dec-05 19:10 234 2 gusting 13 6.7
2019-Dec-05 19:05 251 2 gusting 10 6.7
2019-Dec-05 19:00 221 2 gusting 10 6.7
2019-Dec-05 18:55 227 3 gusting 8 6.7
2019-Dec-05 18:50 222 1 gusting 8 6.7
2019-Dec-05 18:45 217 1 gusting 9 6.7
2019-Dec-05 18:40 225 1 gusting 9 6.7
2019-Dec-05 18:35 221 1 gusting 7 6.7
2019-Dec-05 18:25 194 2 gusting 9 6.7
2019-Dec-05 18:20 243 1 gusting 7 6.7
2019-Dec-05 18:15 221 1 gusting 12 6.7
2019-Dec-05 18:10 236 0 gusting 6 6.7
2019-Dec-05 18:05 238 1 gusting 8 6.7
2019-Dec-05 18:00 269 0 gusting 8 6.7
2019-Dec-05 17:55 245 2 gusting 7 6.7
2019-Dec-05 17:50 217 3 gusting 8 6.7
2019-Dec-05 17:45 136 1 gusting 9 6.7
2019-Dec-05 17:40 213 1 gusting 9 6.7
2019-Dec-05 17:35 203 3 gusting 8 6.7
2019-Dec-05 17:30 209 1 gusting 7 6.7
2019-Dec-05 17:25 249 2 gusting 10 6.7
2019-Dec-05 17:20 201 2 gusting 10 6.7
2019-Dec-05 17:11 210 1 gusting 8 6.7
2019-Dec-05 17:06 219 3 gusting 8 6.7
2019-Dec-05 17:01 226 1 gusting 8 6.7
2019-Dec-05 16:55 238 1 gusting 6 6.7
2019-Dec-05 16:51 180 1 gusting 9 6.1
2019-Dec-05 16:47 263 2 gusting 9 6.1
2019-Dec-05 16:40 198 1 gusting 8 6.1
2019-Dec-05 16:35 209 0 gusting 8 6.1
2019-Dec-05 16:31 185 1 gusting 8 6.1
2019-Dec-05 16:25 217 2 gusting 13 6.1
2019-Dec-05 16:20 221 1 gusting 6 6.1
2019-Dec-05 16:16 214 1 gusting 6 6.1
2019-Dec-05 16:10 137 1 gusting 8 6.1
2019-Dec-05 16:06 165 0 gusting 8 6.1
2019-Dec-05 16:01 223 2 gusting 8 6.1
2019-Dec-05 15:56 220 1 gusting 8 6.1
2019-Dec-05 15:51 239 0 gusting 8 6.1
2019-Dec-05 15:46 201 0 gusting 13 6.1
2019-Dec-05 15:41 247 2 gusting 10 6.1
2019-Dec-05 15:35 234 1 gusting 9 6.1
2019-Dec-05 15:31 198 2 gusting 10 6.1
2019-Dec-05 15:25 196 2 gusting 7 6.1
2019-Dec-05 15:21 214 1 gusting 7 6.1
2019-Dec-05 15:16 286 1 gusting 4 6.1
2019-Dec-05 15:11 204 0 gusting 6 6.1
2019-Dec-05 15:05 216 2 gusting 6 6.1
2019-Dec-05 15:01 210 0 gusting 6 6.1
2019-Dec-05 14:55 231 1 gusting 6 6.1
2019-Dec-05 14:51 250 1 gusting 6 6.1
2019-Dec-05 14:46 198 0 gusting 6 6.1
2019-Dec-05 14:40 240 2 gusting 6 6.1
2019-Dec-05 14:35 202 1 gusting 6 6.1
2019-Dec-05 14:30 221 0 gusting 5 6.1
2019-Dec-05 14:25 206 0 gusting 6 6.1
2019-Dec-05 14:20 244 2 gusting 6 6.1
2019-Dec-05 14:17 185 1 gusting 7 6.1
2019-Dec-05 14:10 203 2 gusting 7 6.7
2019-Dec-05 14:05 221 1 gusting 6 6.7
2019-Dec-05 14:01 194 1 gusting 6 6.7
2019-Dec-05 13:55 206 1 gusting 6 6.7
2019-Dec-05 13:50 186 1 gusting 4 6.7
2019-Dec-05 13:46 246 1 gusting 4 6.7
2019-Dec-05 13:40 219 0 gusting 6 6.7
2019-Dec-05 13:35 228 6.7
2019-Dec-05 13:31 244 0 gusting 6 6.7
2019-Dec-05 13:25 243 0 gusting 6 6.7
2019-Dec-05 13:20 203 0 gusting 6 6.7
2019-Dec-05 13:16 208 6.7
2019-Dec-05 13:10 221 0 gusting 5 6.7
2019-Dec-05 13:05 200 7.2
2019-Dec-05 13:01 220 2 gusting 5 7.2
2019-Dec-05 12:55 202 1 gusting 11 7.2
2019-Dec-05 12:50 167 1 gusting 11 7.2
2019-Dec-05 12:45 243 1 gusting 9 7.2
2019-Dec-05 12:40 227 2 gusting 8 7.2
2019-Dec-05 12:35 244 1 gusting 8 7.2
2019-Dec-05 12:31 219 2 gusting 9 7.2
2019-Dec-05 12:25 209 2 gusting 7 7.2
2019-Dec-05 12:20 247 2 gusting 7 7.2
2019-Dec-05 12:15 236 1 gusting 4 7.2
2019-Dec-05 12:10 234 1 gusting 6 7.2
2019-Dec-05 12:05 236 1 gusting 6 7.2
2019-Dec-05 12:00 243 1 gusting 8 7.2
2019-Dec-05 11:55 217 2 gusting 8 7.2
2019-Dec-05 11:50 245 0 gusting 8 7.2
2019-Dec-05 11:45 202 1 gusting 6 7.2
2019-Dec-05 11:40 238 1 gusting 6 7.2
2019-Dec-05 11:35 238 0 gusting 6 7.2
2019-Dec-05 11:30 222 1 gusting 6 7.2
2019-Dec-05 11:25 247 0 gusting 6 7.2
2019-Dec-05 11:20 233 2 gusting 12 7.2
2019-Dec-05 11:15 249 1 gusting 12 7.2
2019-Dec-05 11:10 231 2 gusting 5 7.2
2019-Dec-05 11:00 235 1 gusting 6 7.2
2019-Dec-05 10:55 249 0 gusting 5 6.7
2019-Dec-05 10:50 207 1 gusting 7 6.7
2019-Dec-05 10:40 209 0 gusting 9 6.7
2019-Dec-05 10:35 236 6.7
2019-Dec-05 10:30 207 6.7
2019-Dec-05 10:25 249 1 gusting 6 6.7
2019-Dec-05 10:15 208 0 gusting 6 6.7
2019-Dec-05 10:10 201 2 gusting 6 6.7
2019-Dec-05 10:05 235 0 gusting 6 6.7
2019-Dec-05 10:00 219 1 gusting 6 6.7
2019-Dec-05 09:55 209 0 gusting 7 6.7
2019-Dec-05 09:50 229 6.1
2019-Dec-05 09:45 217 1 gusting 6 6.1
2019-Dec-05 09:40 203 1 gusting 6 6.1
2019-Dec-05 09:35 272 1 gusting 6 6.1
2019-Dec-05 09:25 229 1 gusting 5 6.1
2019-Dec-05 09:20 221 0 gusting 5 6.1
2019-Dec-05 09:15 212 1 gusting 6 6.1
2019-Dec-05 09:10 223 1 gusting 9 6.1
2019-Dec-05 09:01 179 1 gusting 5 6.1
2019-Dec-05 08:56 221 1 gusting 5 6.1
2019-Dec-05 08:50 252 1 gusting 5 5.6
2019-Dec-05 08:47 234 1 gusting 7 5.6
2019-Dec-05 08:40 235 2 gusting 7 5.6
2019-Dec-05 08:36 200 2 gusting 5 5.6
2019-Dec-05 08:32 224 2 gusting 4 5.6
2019-Dec-05 08:26 236 0 gusting 6 5.6
2019-Dec-05 08:20 232 0 gusting 7 5.6
2019-Dec-05 08:16 228 0 gusting 7 5.6
2019-Dec-05 08:10 178 1 gusting 6 5.6
2019-Dec-05 08:05 219 1 gusting 5 5.6
2019-Dec-05 08:01 207 0 gusting 6 5.6
2019-Dec-05 07:55 194 1 gusting 6 5.6
2019-Dec-05 07:50 181 1 gusting 6 5.6
2019-Dec-05 07:47 196 0 gusting 7 5.6
2019-Dec-05 07:40 236 1 gusting 7 5.6
2019-Dec-05 07:36 182 1 gusting 5 5.6
2019-Dec-05 07:31 187 1 gusting 5 5.6
2019-Dec-05 07:25 238 1 gusting 6 5.6
2019-Dec-05 07:20 227 0 gusting 6 5.6
2019-Dec-05 07:16 225 0 gusting 4 5.6
2019-Dec-05 07:10 238 0 gusting 4 5.6
2019-Dec-05 07:05 235 5.6
2019-Dec-05 07:01 215 0 gusting 4 5.6
2019-Dec-05 06:55 208 1 gusting 4 5.6
2019-Dec-05 06:50 236 1 gusting 5 5.6
2019-Dec-05 06:46 223 1 gusting 6 5.6
2019-Dec-05 06:40 234 0 gusting 6 5.6
2019-Dec-05 06:35 233 0 gusting 6 5.6
2019-Dec-05 06:31 238 0 gusting 6 5.6
2019-Dec-05 06:25 223 0 gusting 5 5.6
2019-Dec-05 06:20 211 1 gusting 5 5.6
2019-Dec-05 06:16 236 0 gusting 5 5.6
2019-Dec-05 06:11 265 1 gusting 5 5.6
2019-Dec-05 06:05 213 1 gusting 6 5.6
2019-Dec-05 06:02 244 5.6
2019-Dec-05 05:56 219 0 gusting 4 5.6
2019-Dec-05 05:50 190 0 gusting 4 5.6
2019-Dec-05 05:45 205 0 gusting 4 5.6
2019-Dec-05 05:40 254 0 gusting 3 5.6
2019-Dec-05 05:35 227 1 gusting 3 5.6
2019-Dec-05 05:31 225 0 gusting 3 5.6
2019-Dec-05 05:25 229 5.6
2019-Dec-05 05:20 217 5.6
2019-Dec-05 05:15 180 5.6
2019-Dec-05 05:10 227 5.6
2019-Dec-05 05:05 244 0 gusting 3 5.6
2019-Dec-05 05:01 242 0 gusting 2 5.6
2019-Dec-05 04:55 221 5.6
2019-Dec-05 04:50 212 5.6
2019-Dec-05 04:46 200 5.6
2019-Dec-05 04:40 202 5.6
2019-Dec-05 04:35 200 5.6
2019-Dec-05 04:31 188 5.6
2019-Dec-05 04:25 225 5.6
2019-Dec-05 04:20 229 5.6
2019-Dec-05 04:15 232 5.6
2019-Dec-05 04:10 208 5.6
2019-Dec-05 04:05 207 5.6
2019-Dec-05 04:01 209 5.6
2019-Dec-05 03:55 194 5.6
2019-Dec-05 03:50 194 5.6
2019-Dec-05 03:45 200 5.6
2019-Dec-05 03:40 204 6.1
2019-Dec-05 03:35 207 6.1
2019-Dec-05 03:30 237 6.1
2019-Dec-05 03:25 213 6.1
2019-Dec-05 03:20 244 6.1
2019-Dec-05 03:15 220 0 gusting 3 6.1
2019-Dec-05 03:10 238 0 gusting 3 6.1
2019-Dec-05 03:05 232 0 gusting 4 6.1
2019-Dec-05 03:00 237 0 gusting 4 6.1
2019-Dec-05 02:55 252 0 gusting 5 6.1
2019-Dec-05 02:50 249 0 gusting 4 6.1
2019-Dec-05 02:40 227 6.7
2019-Dec-05 02:30 240 1 gusting 7 6.7
2019-Dec-05 02:25 239 1 gusting 4 6.7
2019-Dec-05 02:20 240 1 gusting 4 6.7
2019-Dec-05 02:10 234 1 gusting 6 6.7
2019-Dec-05 02:05 248 2 gusting 6 6.7
2019-Dec-05 01:55 267 0 gusting 4 6.7
2019-Dec-05 01:50 242 6.7
2019-Dec-05 01:45 220 1 gusting 4 6.7
2019-Dec-05 01:40 247 1 gusting 5 6.7
2019-Dec-05 01:35 219 0 gusting 4 6.7
2019-Dec-05 01:25 249 2 gusting 6 6.7
2019-Dec-05 01:20 246 0 gusting 4 6.7
2019-Dec-05 01:10 217 0 gusting 4 6.7
2019-Dec-05 01:05 215 6.7
2019-Dec-05 01:00 249 0 gusting 4 6.7
2019-Dec-05 00:55 250 1 gusting 4 6.7
2019-Dec-05 00:50 239 6.7
2019-Dec-05 00:45 207 0 gusting 5 6.7
2019-Dec-05 00:40 225 0 gusting 4 6.7
2019-Dec-05 00:35 221 0 gusting 4 6.7
2019-Dec-05 00:30 234 6.7
2019-Dec-05 00:21 225 6.7
2019-Dec-05 00:19 198 0 gusting 3 6.7
2019-Dec-05 00:11 242 0 gusting 3 6.7
2019-Dec-05 00:06 208 6.7
2019-Dec-05 00:01 220 6.7
2019-Dec-04 23:55 217 1 gusting 4 6.7
2019-Dec-04 23:50 202 0 gusting 10 6.7
2019-Dec-04 23:47 225 1 gusting 10 6.7
2019-Dec-04 23:40 240 1 gusting 5 6.7
2019-Dec-04 23:35 176 1 gusting 4 6.7
2019-Dec-04 23:32 205 0 gusting 4 6.7
2019-Dec-04 23:26 242 1 gusting 4 6.7
2019-Dec-04 23:20 242 0 gusting 4 6.7
2019-Dec-04 23:17 242 1 gusting 6 6.7
2019-Dec-04 23:10 224 1 gusting 6 6.7
2019-Dec-04 23:06 223 1 gusting 6 6.7
2019-Dec-04 23:01 238 1 gusting 6 6.7
2019-Dec-04 22:55 240 1 gusting 5 6.7
2019-Dec-04 22:50 264 6.7
2019-Dec-04 22:46 227 1 gusting 3 6.7
2019-Dec-04 22:40 210 6.7
2019-Dec-04 22:35 218 6.7
2019-Dec-04 22:31 261 0 gusting 3 6.7
2019-Dec-04 22:25 153 6.7
2019-Dec-04 22:20 227 0 gusting 4 6.7
2019-Dec-04 22:16 227 0 gusting 4 6.7
2019-Dec-04 22:10 209 6.7
2019-Dec-04 22:05 197 0 gusting 4 6.1
2019-Dec-04 22:03 212 6.1
2019-Dec-04 21:55 213 6.1
2019-Dec-04 21:50 244 6.1
2019-Dec-04 21:46 266 6.1
2019-Dec-04 21:40 213 0 gusting 4 6.1
2019-Dec-04 21:35 239 6.1
2019-Dec-04 21:31 238 0 gusting 4 6.1
2019-Dec-04 21:25 226 0 gusting 4 6.1
2019-Dec-04 21:20 207 6.1
2019-Dec-04 21:17 200 6.1
2019-Dec-04 21:10 217 0 gusting 6 6.1
2019-Dec-04 21:05 212 1 gusting 5 6.1
2019-Dec-04 21:02 215 1 gusting 4 6.1
2019-Dec-04 20:55 237 0 gusting 6 6.1
2019-Dec-04 20:50 230 6.1
2019-Dec-04 20:46 232 6.1
2019-Dec-04 20:40 238 0 gusting 4 6.1
2019-Dec-04 20:35 246 0 gusting 4 6.1
2019-Dec-04 20:32 238 6.1
2019-Dec-04 20:25 242 0 gusting 5 6.1
2019-Dec-04 20:20 236 0 gusting 5 6.1
2019-Dec-04 20:16 236 0 gusting 4 6.1
2019-Dec-04 20:10 211 6.1
2019-Dec-04 20:05 246 6.7
2019-Dec-04 20:01 240 6.7